Volver al catálogo

ARIANE 42P DEB

ActivoLEO
NORAD 44511·DEBRIS·🇫🇷 France

Lanzado Aug 10, 1992 desde Guiana Space Centre

Loading…

Próximos Pases (próximas 24 horas)

TLE

ActualizadoSource: Space-Track

Época: Sep 14, 2026, 12:27 UTC

1 44511U 92052J   26257.51939242  .00001151  00000-0  48776-2 0  9992
2 44511  66.0651  91.5101 0060175 241.9536 117.5388 12.85846797331712

Sigue ARIANE 42P DEB en tiempo real con AllMySat

Download on the App Store